Year,Month,Day,Hour,Minute,Value (Times are PST for temperature in C)
2008,10,18,00,00,9.40
2008,10,18,00,01,9.40
2008,10,18,00,02,9.40
2008,10,18,00,03,9.40
2008,10,18,00,04,9.30
2008,10,18,00,05,9.30
2008,10,18,00,06,9.30
2008,10,18,00,07,9.30
2008,10,18,00,08,9.30
2008,10,18,00,09,9.30
2008,10,18,00,10,9.30
2008,10,18,00,11,9.30
2008,10,18,00,12,9.30
2008,10,18,00,13,9.30
2008,10,18,00,14,9.30
2008,10,18,00,15,9.30
2008,10,18,00,16,9.30
2008,10,18,00,17,9.30
2008,10,18,00,18,9.30
2008,10,18,00,19,9.30
2008,10,18,00,20,9.30
2008,10,18,00,21,9.20
2008,10,18,00,22,9.20
2008,10,18,00,23,9.20
2008,10,18,00,24,9.20
2008,10,18,00,25,9.20
2008,10,18,00,26,9.20
2008,10,18,00,27,9.20
2008,10,18,00,28,9.20
2008,10,18,00,29,9.20
2008,10,18,00,30,9.20
2008,10,18,00,31,9.20
2008,10,18,00,32,9.20
2008,10,18,00,33,9.20
2008,10,18,00,34,9.20
2008,10,18,00,35,9.20
2008,10,18,00,36,9.20
2008,10,18,00,37,9.20
2008,10,18,00,38,9.20
2008,10,18,00,39,9.20
2008,10,18,00,40,9.20
2008,10,18,00,41,9.20
2008,10,18,00,42,9.20
2008,10,18,00,43,9.20
2008,10,18,00,44,9.20
2008,10,18,00,45,9.20
2008,10,18,00,46,9.20
2008,10,18,00,47,9.20
2008,10,18,00,48,9.20
2008,10,18,00,49,9.20
2008,10,18,00,50,9.20
2008,10,18,00,51,9.20
2008,10,18,00,52,9.20
2008,10,18,00,53,9.20
2008,10,18,00,54,9.20
2008,10,18,00,55,9.20
2008,10,18,00,56,9.20
2008,10,18,00,57,9.20
2008,10,18,00,58,9.20
2008,10,18,00,59,9.10
2008,10,18,01,00,9.10
2008,10,18,01,01,9.10
2008,10,18,01,02,9.10
2008,10,18,01,03,9.10
2008,10,18,01,04,9.10
2008,10,18,01,05,9.10
2008,10,18,01,06,9.10
2008,10,18,01,07,9.10
2008,10,18,01,08,9.10
2008,10,18,01,09,9.00
2008,10,18,01,10,9.00
2008,10,18,01,11,9.00
2008,10,18,01,12,9.00
2008,10,18,01,13,9.00
2008,10,18,01,14,9.00
2008,10,18,01,15,9.00
2008,10,18,01,16,9.00
2008,10,18,01,17,8.90
2008,10,18,01,18,8.90
2008,10,18,01,19,8.90
2008,10,18,01,20,8.90
2008,10,18,01,21,8.90
2008,10,18,01,22,8.90
2008,10,18,01,23,8.90
2008,10,18,01,24,8.90
2008,10,18,01,25,8.90
2008,10,18,01,26,8.90
2008,10,18,01,27,8.90
2008,10,18,01,28,8.90
2008,10,18,01,29,8.90
2008,10,18,01,30,8.90
2008,10,18,01,31,8.90
2008,10,18,01,32,8.90
2008,10,18,01,33,8.90
2008,10,18,01,34,8.90
2008,10,18,01,35,8.80
2008,10,18,01,36,8.80
2008,10,18,01,37,8.80
2008,10,18,01,38,8.80
2008,10,18,01,39,8.80
2008,10,18,01,40,8.80
2008,10,18,01,41,8.80
2008,10,18,01,42,8.80
2008,10,18,01,43,8.80
2008,10,18,01,44,8.80
2008,10,18,01,45,8.80
2008,10,18,01,46,8.80
2008,10,18,01,47,8.70
2008,10,18,01,48,8.70
2008,10,18,01,49,8.70
2008,10,18,01,50,8.70
2008,10,18,01,51,8.70
2008,10,18,01,52,8.70
2008,10,18,01,53,8.70
2008,10,18,01,54,8.70
2008,10,18,01,55,8.70
2008,10,18,01,56,8.70
2008,10,18,01,57,8.70
2008,10,18,01,58,8.70
2008,10,18,01,59,8.70
2008,10,18,02,00,8.70
2008,10,18,02,01,8.60
2008,10,18,02,02,8.60
2008,10,18,02,03,8.60
2008,10,18,02,04,8.60
2008,10,18,02,05,8.60
2008,10,18,02,06,8.60
2008,10,18,02,07,8.60
2008,10,18,02,08,8.60
2008,10,18,02,09,8.60
2008,10,18,02,10,8.60
2008,10,18,02,11,8.60
2008,10,18,02,12,8.60
2008,10,18,02,13,8.60
2008,10,18,02,14,8.60
2008,10,18,02,15,8.60
2008,10,18,02,16,8.60
2008,10,18,02,17,8.60
2008,10,18,02,18,8.60
2008,10,18,02,19,8.60
2008,10,18,02,20,8.60
2008,10,18,02,21,8.60
2008,10,18,02,22,8.60
2008,10,18,02,23,8.60
2008,10,18,02,24,8.60
2008,10,18,02,25,8.60
2008,10,18,02,26,8.60
2008,10,18,02,27,8.60
2008,10,18,02,28,8.60
2008,10,18,02,29,8.60
2008,10,18,02,30,8.60
2008,10,18,02,31,8.60
2008,10,18,02,32,8.60
2008,10,18,02,33,8.60
2008,10,18,02,34,8.60
2008,10,18,02,35,8.50
2008,10,18,02,36,8.50
2008,10,18,02,37,8.50
2008,10,18,02,38,8.50
2008,10,18,02,39,8.50
2008,10,18,02,40,8.50
2008,10,18,02,41,8.50
2008,10,18,02,42,8.40
2008,10,18,02,43,8.40
2008,10,18,02,44,8.40
2008,10,18,02,45,8.40
2008,10,18,02,46,8.40
2008,10,18,02,47,8.40
2008,10,18,02,48,8.40
2008,10,18,02,49,8.40
2008,10,18,02,50,8.40
2008,10,18,02,51,8.40
2008,10,18,02,52,8.40
2008,10,18,02,53,8.40
2008,10,18,02,54,8.40
2008,10,18,02,55,8.40
2008,10,18,02,56,8.40
2008,10,18,02,57,8.30
2008,10,18,02,58,8.30
2008,10,18,02,59,8.30
2008,10,18,03,00,8.30
2008,10,18,03,01,8.30
2008,10,18,03,02,8.30
2008,10,18,03,03,8.30
2008,10,18,03,04,8.30
2008,10,18,03,05,8.30
2008,10,18,03,06,8.20
2008,10,18,03,07,8.20
2008,10,18,03,08,8.20
2008,10,18,03,09,8.20
2008,10,18,03,10,8.20
2008,10,18,03,11,8.20
2008,10,18,03,12,8.20
2008,10,18,03,13,8.20
2008,10,18,03,14,8.20
2008,10,18,03,15,8.20
2008,10,18,03,16,8.10
2008,10,18,03,17,8.10
2008,10,18,03,18,8.10
2008,10,18,03,19,8.10
2008,10,18,03,20,8.10
2008,10,18,03,21,8.10
2008,10,18,03,22,8.10
2008,10,18,03,23,8.10
2008,10,18,03,24,8.10
2008,10,18,03,25,8.10
2008,10,18,03,26,8.10
2008,10,18,03,27,8.10
2008,10,18,03,28,8.10
2008,10,18,03,29,8.10
2008,10,18,03,30,8.10
2008,10,18,03,31,8.10
2008,10,18,03,32,8.10
2008,10,18,03,33,8.00
2008,10,18,03,34,8.00
2008,10,18,03,35,8.00
2008,10,18,03,36,8.00
2008,10,18,03,37,8.00
2008,10,18,03,38,8.00
2008,10,18,03,39,7.90
2008,10,18,03,40,7.90
2008,10,18,03,41,7.90
2008,10,18,03,42,7.90
2008,10,18,03,43,7.90
2008,10,18,03,44,7.90
2008,10,18,03,45,7.90
2008,10,18,03,46,7.90
2008,10,18,03,47,8.00
2008,10,18,03,48,8.00
2008,10,18,03,49,8.00
2008,10,18,03,50,8.00
2008,10,18,03,51,8.00
2008,10,18,03,52,8.00
2008,10,18,03,53,8.00
2008,10,18,03,54,8.00
2008,10,18,03,55,8.00
2008,10,18,03,56,8.00
2008,10,18,03,57,8.00
2008,10,18,03,58,8.00
2008,10,18,03,59,8.10
2008,10,18,04,00,8.10
2008,10,18,04,01,8.10
2008,10,18,04,02,8.10
2008,10,18,04,03,8.10
2008,10,18,04,04,8.10
2008,10,18,04,05,8.10
2008,10,18,04,06,8.10
2008,10,18,04,07,8.10
2008,10,18,04,08,8.10
2008,10,18,04,09,8.10
2008,10,18,04,10,8.10
2008,10,18,04,11,8.10
2008,10,18,04,12,8.10
2008,10,18,04,13,8.10
2008,10,18,04,14,8.10
2008,10,18,04,15,8.10
2008,10,18,04,16,8.10
2008,10,18,04,17,8.00
2008,10,18,04,18,8.00
2008,10,18,04,19,8.00
2008,10,18,04,20,8.00
2008,10,18,04,21,8.00
2008,10,18,04,22,8.00
2008,10,18,04,23,8.00
2008,10,18,04,24,8.00
2008,10,18,04,25,8.00
2008,10,18,04,26,8.00
2008,10,18,04,27,8.00
2008,10,18,04,28,8.00
2008,10,18,04,29,8.00
2008,10,18,04,30,8.00
2008,10,18,04,31,8.00
2008,10,18,04,32,8.00
2008,10,18,04,33,8.00
2008,10,18,04,34,8.00
2008,10,18,04,35,8.00
2008,10,18,04,36,8.00
2008,10,18,04,37,8.00
2008,10,18,04,38,8.00
2008,10,18,04,39,8.00
2008,10,18,04,40,8.00
2008,10,18,04,41,8.00
2008,10,18,04,42,8.00
2008,10,18,04,43,8.00
2008,10,18,04,44,7.90
2008,10,18,04,45,7.90
2008,10,18,04,46,7.90
2008,10,18,04,47,7.90
2008,10,18,04,48,7.90
2008,10,18,04,49,7.90
2008,10,18,04,50,7.90
2008,10,18,04,51,7.90
2008,10,18,04,52,8.00
2008,10,18,04,53,8.00
2008,10,18,04,54,8.00
2008,10,18,04,55,8.00
2008,10,18,04,56,8.00
2008,10,18,04,57,8.00
2008,10,18,04,58,8.00
2008,10,18,04,59,8.00
2008,10,18,05,00,8.00
2008,10,18,05,01,8.00
2008,10,18,05,02,8.00
2008,10,18,05,03,8.00
2008,10,18,05,04,8.00
2008,10,18,05,05,8.00
2008,10,18,05,06,8.00
2008,10,18,05,07,7.90
2008,10,18,05,08,7.90
2008,10,18,05,09,7.90
2008,10,18,05,10,7.90
2008,10,18,05,11,7.90
2008,10,18,05,12,7.90
2008,10,18,05,13,7.90
2008,10,18,05,14,7.90
2008,10,18,05,15,7.90
2008,10,18,05,16,7.80
2008,10,18,05,17,7.80
2008,10,18,05,18,7.80
2008,10,18,05,19,7.80
2008,10,18,05,20,7.80
2008,10,18,05,21,7.80
2008,10,18,05,22,7.80
2008,10,18,05,23,7.80
2008,10,18,05,24,7.70
2008,10,18,05,25,7.70
2008,10,18,05,26,7.70
2008,10,18,05,27,7.70
2008,10,18,05,28,7.70
2008,10,18,05,29,7.60
2008,10,18,05,30,7.60
2008,10,18,05,31,7.60
2008,10,18,05,32,7.50
2008,10,18,05,33,7.50
2008,10,18,05,34,7.40
2008,10,18,05,35,7.40
2008,10,18,05,36,7.40
2008,10,18,05,37,7.40
2008,10,18,05,38,7.40
2008,10,18,05,39,7.40
2008,10,18,05,40,7.40
2008,10,18,05,41,7.40
2008,10,18,05,42,7.40
2008,10,18,05,43,7.40
2008,10,18,05,44,7.40
2008,10,18,05,45,7.30
2008,10,18,05,46,7.30
2008,10,18,05,47,7.30
2008,10,18,05,48,7.30
2008,10,18,05,49,7.30
2008,10,18,05,50,7.30
2008,10,18,05,51,7.30
2008,10,18,05,52,7.30
2008,10,18,05,53,7.40
2008,10,18,05,54,7.40
2008,10,18,05,55,7.40
2008,10,18,05,56,7.40
2008,10,18,05,57,7.40
2008,10,18,05,58,7.40
2008,10,18,05,59,7.40
2008,10,18,06,00,7.40
2008,10,18,06,01,7.40
2008,10,18,06,02,7.40
2008,10,18,06,03,7.30
2008,10,18,06,04,7.30
2008,10,18,06,05,7.30
2008,10,18,06,06,7.30
2008,10,18,06,07,7.30
2008,10,18,06,08,7.30
2008,10,18,06,09,7.30
2008,10,18,06,10,7.30
2008,10,18,06,11,7.30
2008,10,18,06,12,7.20
2008,10,18,06,13,7.20
2008,10,18,06,14,7.00
2008,10,18,06,15,7.00
2008,10,18,06,16,6.90
2008,10,18,06,17,6.90
2008,10,18,06,18,6.90
2008,10,18,06,19,6.90
2008,10,18,06,20,6.90
2008,10,18,06,21,6.90
2008,10,18,06,22,7.00
2008,10,18,06,23,7.00
2008,10,18,06,24,7.00
2008,10,18,06,25,7.10
2008,10,18,06,26,7.10
2008,10,18,06,27,7.10
2008,10,18,06,28,7.10
2008,10,18,06,29,7.10
2008,10,18,06,30,7.10
2008,10,18,06,31,7.10
2008,10,18,06,32,7.00
2008,10,18,06,33,6.90
2008,10,18,06,34,6.70
2008,10,18,06,35,6.60
2008,10,18,06,36,6.40
2008,10,18,06,37,6.30
2008,10,18,06,38,6.20
2008,10,18,06,39,6.10
2008,10,18,06,40,6.00
2008,10,18,06,41,6.00
2008,10,18,06,42,6.00
2008,10,18,06,43,6.00
2008,10,18,06,44,6.10
2008,10,18,06,45,6.10
2008,10,18,06,46,6.20
2008,10,18,06,47,6.20
2008,10,18,06,48,6.30
2008,10,18,06,49,6.30
2008,10,18,06,50,6.20
2008,10,18,06,51,6.20
2008,10,18,06,52,6.00
2008,10,18,06,53,5.90
2008,10,18,06,54,5.80
2008,10,18,06,55,5.70
2008,10,18,06,56,5.70
2008,10,18,06,57,5.60
2008,10,18,06,58,5.40
2008,10,18,06,59,5.30
2008,10,18,07,00,5.20
2008,10,18,07,01,5.00
2008,10,18,07,02,4.90
2008,10,18,07,03,4.80
2008,10,18,07,04,4.70
2008,10,18,07,05,4.70
2008,10,18,07,06,4.60
2008,10,18,07,07,4.60
2008,10,18,07,08,4.60
2008,10,18,07,09,4.60
2008,10,18,07,10,4.60
2008,10,18,07,11,4.60
2008,10,18,07,12,4.60
2008,10,18,07,13,4.60
2008,10,18,07,14,4.60
2008,10,18,07,15,4.60
2008,10,18,07,16,4.60
2008,10,18,07,17,4.70
2008,10,18,07,18,4.70
2008,10,18,07,19,4.70
2008,10,18,07,20,4.80
2008,10,18,07,21,4.80
2008,10,18,07,22,4.80
2008,10,18,07,23,4.80
2008,10,18,07,24,4.80
2008,10,18,07,25,4.80
2008,10,18,07,26,4.80
2008,10,18,07,27,4.80
2008,10,18,07,28,4.80
2008,10,18,07,29,4.80
2008,10,18,07,30,4.80
2008,10,18,07,31,4.80
2008,10,18,07,32,4.80
2008,10,18,07,33,4.80
2008,10,18,07,34,4.80
2008,10,18,07,35,4.80
2008,10,18,07,36,4.90
2008,10,18,07,37,4.80
2008,10,18,07,38,4.80
2008,10,18,07,39,4.80
2008,10,18,07,40,4.80
2008,10,18,07,41,4.80
2008,10,18,07,42,4.70
2008,10,18,07,43,4.70
2008,10,18,07,44,4.60
2008,10,18,07,45,4.60
2008,10,18,07,46,4.50
2008,10,18,07,47,4.50
2008,10,18,07,48,4.40
2008,10,18,07,49,4.40
2008,10,18,07,50,4.40
2008,10,18,07,51,4.40
2008,10,18,07,52,4.40
2008,10,18,07,53,4.40
2008,10,18,07,54,4.40
2008,10,18,07,55,4.40
2008,10,18,07,56,4.40
2008,10,18,07,57,4.40
2008,10,18,07,58,4.50
2008,10,18,07,59,4.50
2008,10,18,08,00,4.40
2008,10,18,08,01,4.40
2008,10,18,08,02,4.40
2008,10,18,08,03,4.40
2008,10,18,08,04,4.40
2008,10,18,08,05,4.40
2008,10,18,08,06,4.50
2008,10,18,08,07,4.50
2008,10,18,08,08,4.60
2008,10,18,08,09,4.60
2008,10,18,08,10,4.60
2008,10,18,08,11,4.70
2008,10,18,08,12,4.70
2008,10,18,08,13,4.70
2008,10,18,08,14,4.80
2008,10,18,08,15,4.80
2008,10,18,08,16,4.80
2008,10,18,08,17,4.90
2008,10,18,08,18,5.00
2008,10,18,08,19,5.00
2008,10,18,08,20,5.10
2008,10,18,08,21,5.10
2008,10,18,08,22,5.20
2008,10,18,08,23,5.30
2008,10,18,08,24,5.30
2008,10,18,08,25,5.40
2008,10,18,08,26,5.40
2008,10,18,08,27,5.50
2008,10,18,08,28,5.60
2008,10,18,08,29,5.60
2008,10,18,08,30,5.70
2008,10,18,08,31,5.70
2008,10,18,08,32,5.70
2008,10,18,08,33,5.80
2008,10,18,08,34,5.80
2008,10,18,08,35,5.80
2008,10,18,08,36,5.80
2008,10,18,08,37,5.80
2008,10,18,08,38,5.80
2008,10,18,08,39,5.80
2008,10,18,08,40,5.80
2008,10,18,08,41,5.80
2008,10,18,08,42,5.80
2008,10,18,08,43,5.80
2008,10,18,08,44,5.80
2008,10,18,08,45,5.80
2008,10,18,08,46,5.90
2008,10,18,08,47,5.80
2008,10,18,08,48,5.80
2008,10,18,08,49,5.80
2008,10,18,08,50,5.80
2008,10,18,08,51,5.80
2008,10,18,08,52,5.80
2008,10,18,08,53,5.80
2008,10,18,08,54,5.80
2008,10,18,08,55,5.90
2008,10,18,08,56,5.90
2008,10,18,08,57,6.00
2008,10,18,08,58,6.00
2008,10,18,08,59,6.10
2008,10,18,09,00,6.10
2008,10,18,09,01,6.20
2008,10,18,09,02,6.20
2008,10,18,09,03,6.30
2008,10,18,09,04,6.30
2008,10,18,09,05,6.40
2008,10,18,09,06,6.40
2008,10,18,09,07,6.40
2008,10,18,09,08,6.50
2008,10,18,09,09,6.50
2008,10,18,09,10,6.60
2008,10,18,09,11,6.60
2008,10,18,09,12,6.70
2008,10,18,09,13,6.70
2008,10,18,09,14,6.70
2008,10,18,09,15,6.80
2008,10,18,09,16,6.80
2008,10,18,09,17,6.80
2008,10,18,09,18,6.80
2008,10,18,09,19,6.90
2008,10,18,09,20,6.90
2008,10,18,09,21,6.90
2008,10,18,09,22,7.00
2008,10,18,09,23,7.00
2008,10,18,09,24,7.10
2008,10,18,09,25,7.10
2008,10,18,09,26,7.10
2008,10,18,09,27,7.20
2008,10,18,09,28,7.20
2008,10,18,09,29,7.20
2008,10,18,09,30,7.30
2008,10,18,09,31,7.30
2008,10,18,09,32,7.40
2008,10,18,09,33,7.50
2008,10,18,09,34,7.70
2008,10,18,09,35,7.80
2008,10,18,09,36,7.90
2008,10,18,09,37,7.90
2008,10,18,09,38,8.00
2008,10,18,09,39,8.10
2008,10,18,09,40,8.20
2008,10,18,09,41,8.30
2008,10,18,09,42,8.40
2008,10,18,09,43,8.50
2008,10,18,09,44,8.60
2008,10,18,09,45,8.60
2008,10,18,09,46,8.60
2008,10,18,09,47,8.60
2008,10,18,09,48,8.60
2008,10,18,09,49,8.60
2008,10,18,09,50,8.60
2008,10,18,09,51,8.60
2008,10,18,09,52,8.60
2008,10,18,09,53,8.70
2008,10,18,09,54,8.70
2008,10,18,09,55,8.80
2008,10,18,09,56,8.80
2008,10,18,09,57,8.80
2008,10,18,09,58,8.90
2008,10,18,09,59,8.90
2008,10,18,10,00,8.80
2008,10,18,10,01,8.90
2008,10,18,10,02,8.90
2008,10,18,10,03,9.00
2008,10,18,10,04,9.10
2008,10,18,10,05,9.20
2008,10,18,10,06,9.20
2008,10,18,10,07,9.20
2008,10,18,10,08,9.30
2008,10,18,10,09,9.30
2008,10,18,10,10,9.30
2008,10,18,10,11,9.40
2008,10,18,10,12,9.40
2008,10,18,10,13,9.40
2008,10,18,10,14,9.40
2008,10,18,10,15,9.40
2008,10,18,10,16,9.50
2008,10,18,10,17,9.60
2008,10,18,10,18,9.60
2008,10,18,10,19,9.70
2008,10,18,10,20,9.70
2008,10,18,10,21,9.70
2008,10,18,10,22,9.80
2008,10,18,10,23,9.80
2008,10,18,10,24,9.80
2008,10,18,10,25,9.90
2008,10,18,10,26,10.00
2008,10,18,10,27,10.10
2008,10,18,10,28,10.10
2008,10,18,10,29,10.10
2008,10,18,10,30,10.20
2008,10,18,10,31,10.20
2008,10,18,10,32,10.20
2008,10,18,10,33,10.20
2008,10,18,10,34,10.10
2008,10,18,10,35,10.20
2008,10,18,10,36,10.20
2008,10,18,10,37,10.20
2008,10,18,10,38,10.20
2008,10,18,10,39,10.20
2008,10,18,10,40,10.20
2008,10,18,10,41,10.20
2008,10,18,10,42,10.20
2008,10,18,10,43,10.10
2008,10,18,10,44,10.10
2008,10,18,10,45,10.10
2008,10,18,10,46,10.10
2008,10,18,10,47,10.10
2008,10,18,10,48,10.10
2008,10,18,10,49,10.20
2008,10,18,10,50,10.20
2008,10,18,10,51,10.30
2008,10,18,10,52,10.30
2008,10,18,10,53,10.30
2008,10,18,10,54,10.30
2008,10,18,10,55,10.30
2008,10,18,10,56,10.30
2008,10,18,10,57,10.30
2008,10,18,10,58,10.30
2008,10,18,10,59,10.30
2008,10,18,11,00,10.30
2008,10,18,11,01,10.40
2008,10,18,11,02,10.40
2008,10,18,11,03,10.50
2008,10,18,11,04,10.50
2008,10,18,11,05,10.50
2008,10,18,11,06,10.50
2008,10,18,11,07,10.50
2008,10,18,11,08,10.60
2008,10,18,11,09,10.50
2008,10,18,11,10,10.50
2008,10,18,11,11,10.60
2008,10,18,11,12,10.60
2008,10,18,11,13,10.70
2008,10,18,11,14,10.70
2008,10,18,11,15,10.80
2008,10,18,11,16,10.90
2008,10,18,11,17,10.90
2008,10,18,11,18,11.00
2008,10,18,11,19,11.00
2008,10,18,11,20,11.00
2008,10,18,11,21,10.90
2008,10,18,11,22,10.90
2008,10,18,11,23,10.90
2008,10,18,11,24,10.90
2008,10,18,11,25,11.00
2008,10,18,11,26,11.00
2008,10,18,11,27,10.90
2008,10,18,11,28,10.90
2008,10,18,11,29,10.90
2008,10,18,11,30,10.90
2008,10,18,11,31,11.00
2008,10,18,11,32,11.00
2008,10,18,11,33,11.10
2008,10,18,11,34,11.20
2008,10,18,11,35,11.20
2008,10,18,11,36,11.30
2008,10,18,11,37,11.30
2008,10,18,11,38,11.40
2008,10,18,11,39,11.40
2008,10,18,11,40,11.50
2008,10,18,11,41,11.50
2008,10,18,11,42,11.50
2008,10,18,11,43,11.50
2008,10,18,11,44,11.40
2008,10,18,11,45,11.40
2008,10,18,11,46,11.40
2008,10,18,11,47,11.50
2008,10,18,11,48,11.50
2008,10,18,11,49,11.50
2008,10,18,11,50,11.50
2008,10,18,11,51,11.60
2008,10,18,11,52,11.70
2008,10,18,11,53,11.70
2008,10,18,11,54,11.80
2008,10,18,11,55,11.80
2008,10,18,11,56,11.70
2008,10,18,11,57,11.70
2008,10,18,11,58,11.70
2008,10,18,11,59,11.70
2008,10,18,12,00,11.60
2008,10,18,12,01,11.60
2008,10,18,12,02,11.60
2008,10,18,12,03,11.60
2008,10,18,12,04,11.60
2008,10,18,12,05,11.60
2008,10,18,12,06,11.60
2008,10,18,12,07,11.60
2008,10,18,12,08,11.60
2008,10,18,12,09,11.70
2008,10,18,12,10,11.70
2008,10,18,12,11,11.70
2008,10,18,12,12,11.70
2008,10,18,12,13,11.80
2008,10,18,12,14,11.80
2008,10,18,12,15,11.80
2008,10,18,12,16,11.90
2008,10,18,12,17,11.90
2008,10,18,12,18,11.90
2008,10,18,12,19,11.90
2008,10,18,12,20,11.90
2008,10,18,12,21,12.00
2008,10,18,12,22,12.00
2008,10,18,12,23,12.00
2008,10,18,12,24,12.10
2008,10,18,12,25,12.10
2008,10,18,12,26,12.10
2008,10,18,12,27,12.00
2008,10,18,12,28,11.90
2008,10,18,12,29,11.90
2008,10,18,12,30,11.90
2008,10,18,12,31,11.90
2008,10,18,12,32,11.90
2008,10,18,12,33,12.00
2008,10,18,12,34,12.10
2008,10,18,12,35,12.10
2008,10,18,12,36,12.20
2008,10,18,12,37,12.30
2008,10,18,12,38,12.40
2008,10,18,12,39,12.50
2008,10,18,12,40,12.40
2008,10,18,12,41,12.30
2008,10,18,12,42,12.30
2008,10,18,12,43,12.40
2008,10,18,12,44,12.40
2008,10,18,12,45,12.50
2008,10,18,12,46,12.50
2008,10,18,12,47,12.60
2008,10,18,12,48,12.60
2008,10,18,12,49,12.60
2008,10,18,12,50,12.50
2008,10,18,12,51,12.50
2008,10,18,12,52,12.50
2008,10,18,12,53,12.60
2008,10,18,12,54,12.60
2008,10,18,12,55,12.60
2008,10,18,12,56,12.60
2008,10,18,12,57,12.60
2008,10,18,12,58,12.60
2008,10,18,12,59,12.60
2008,10,18,13,00,12.50
2008,10,18,13,01,12.30
2008,10,18,13,02,12.20
2008,10,18,13,03,12.20
2008,10,18,13,04,12.10
2008,10,18,13,05,12.20
2008,10,18,13,06,12.20
2008,10,18,13,07,12.20
2008,10,18,13,08,12.20
2008,10,18,13,09,12.20
2008,10,18,13,10,12.30
2008,10,18,13,11,12.30
2008,10,18,13,12,12.40
2008,10,18,13,13,12.30
2008,10,18,13,14,12.20
2008,10,18,13,15,12.20
2008,10,18,13,16,12.10
2008,10,18,13,17,12.20
2008,10,18,13,18,12.20
2008,10,18,13,19,12.30
2008,10,18,13,20,12.20
2008,10,18,13,21,12.20
2008,10,18,13,22,12.20
2008,10,18,13,23,12.20
2008,10,18,13,24,12.20
2008,10,18,13,25,12.20
2008,10,18,13,26,12.20
2008,10,18,13,27,12.20
2008,10,18,13,28,12.20
2008,10,18,13,29,12.30
2008,10,18,13,30,12.30
2008,10,18,13,31,12.40
2008,10,18,13,32,12.40
2008,10,18,13,33,12.60
2008,10,18,13,34,12.60
2008,10,18,13,35,12.70
2008,10,18,13,36,12.70
2008,10,18,13,37,12.70
2008,10,18,13,38,12.60
2008,10,18,13,39,12.60
2008,10,18,13,40,12.50
2008,10,18,13,41,12.40
2008,10,18,13,42,12.30
2008,10,18,13,43,12.30
2008,10,18,13,44,12.30
2008,10,18,13,45,12.30
2008,10,18,13,46,12.40
2008,10,18,13,47,12.40
2008,10,18,13,48,12.40
2008,10,18,13,49,12.30
2008,10,18,13,50,12.30
2008,10,18,13,51,12.30
2008,10,18,13,52,12.20
2008,10,18,13,53,12.20
2008,10,18,13,54,12.20
2008,10,18,13,55,12.30
2008,10,18,13,56,12.30
2008,10,18,13,57,12.30
2008,10,18,13,58,12.20
2008,10,18,13,59,12.10
2008,10,18,14,00,12.20
2008,10,18,14,01,12.30
2008,10,18,14,02,12.40
2008,10,18,14,03,12.40
2008,10,18,14,04,12.50
2008,10,18,14,05,12.60
2008,10,18,14,06,12.60
2008,10,18,14,07,12.60
2008,10,18,14,08,12.60
2008,10,18,14,09,12.60
2008,10,18,14,10,12.50
2008,10,18,14,11,12.40
2008,10,18,14,12,12.40
2008,10,18,14,13,12.50
2008,10,18,14,14,12.50
2008,10,18,14,15,12.60
2008,10,18,14,16,12.60
2008,10,18,14,17,12.60
2008,10,18,14,18,12.60
2008,10,18,14,19,12.50
2008,10,18,14,20,12.40
2008,10,18,14,21,12.30
2008,10,18,14,22,12.20
2008,10,18,14,23,12.20
2008,10,18,14,24,12.30
2008,10,18,14,25,12.30
2008,10,18,14,26,12.40
2008,10,18,14,27,12.40
2008,10,18,14,28,12.30
2008,10,18,14,29,12.30
2008,10,18,14,30,12.30
2008,10,18,14,31,12.30
2008,10,18,14,32,12.30
2008,10,18,14,33,12.30
2008,10,18,14,34,12.30
2008,10,18,14,35,12.40
2008,10,18,14,36,12.50
2008,10,18,14,37,12.50
2008,10,18,14,38,12.50
2008,10,18,14,39,12.50
2008,10,18,14,40,12.50
2008,10,18,14,41,12.60
2008,10,18,14,42,12.50
2008,10,18,14,43,12.30
2008,10,18,14,44,12.20
2008,10,18,14,45,12.20
2008,10,18,14,46,12.20
2008,10,18,14,47,12.20
2008,10,18,14,48,12.20
2008,10,18,14,49,12.30
2008,10,18,14,50,12.30
2008,10,18,14,51,12.40
2008,10,18,14,52,12.40
2008,10,18,14,53,12.50
2008,10,18,14,54,12.50
2008,10,18,14,55,12.50
2008,10,18,14,56,12.40
2008,10,18,14,57,12.30
2008,10,18,14,58,12.30
2008,10,18,14,59,12.40
2008,10,18,15,00,12.40
2008,10,18,15,01,12.50
2008,10,18,15,02,12.50
2008,10,18,15,03,12.50
2008,10,18,15,04,12.40
2008,10,18,15,05,12.40
2008,10,18,15,06,12.40
2008,10,18,15,07,12.40
2008,10,18,15,08,12.40
2008,10,18,15,09,12.50
2008,10,18,15,10,12.50
2008,10,18,15,11,12.40
2008,10,18,15,12,12.30
2008,10,18,15,13,12.30
2008,10,18,15,14,12.20
2008,10,18,15,15,12.10
2008,10,18,15,16,12.10
2008,10,18,15,17,12.10
2008,10,18,15,18,12.00
2008,10,18,15,19,12.00
2008,10,18,15,20,12.00
2008,10,18,15,21,12.00
2008,10,18,15,22,12.10
2008,10,18,15,23,12.20
2008,10,18,15,24,12.30
2008,10,18,15,25,12.40
2008,10,18,15,26,12.50
2008,10,18,15,27,12.50
2008,10,18,15,28,12.40
2008,10,18,15,29,12.50
2008,10,18,15,30,12.50
2008,10,18,15,31,12.60
2008,10,18,15,32,12.70
2008,10,18,15,33,12.80
2008,10,18,15,34,12.80
2008,10,18,15,35,12.70
2008,10,18,15,36,12.60
2008,10,18,15,37,12.60
2008,10,18,15,38,12.50
2008,10,18,15,39,12.40
2008,10,18,15,40,12.30
2008,10,18,15,41,12.40
2008,10,18,15,42,12.40
2008,10,18,15,43,12.50
2008,10,18,15,44,12.60
2008,10,18,15,45,12.60
2008,10,18,15,46,12.50
2008,10,18,15,47,12.50
2008,10,18,15,48,12.50
2008,10,18,15,49,12.50
2008,10,18,15,50,12.40
2008,10,18,15,51,12.40
2008,10,18,15,52,12.40
2008,10,18,15,53,12.40
2008,10,18,15,54,12.40
2008,10,18,15,55,12.40
2008,10,18,15,56,12.40
2008,10,18,15,57,12.40
2008,10,18,15,58,12.30
2008,10,18,15,59,12.20
2008,10,18,16,00,12.20
2008,10,18,16,01,12.20
2008,10,18,16,02,12.20
2008,10,18,16,03,12.30
2008,10,18,16,04,12.30
2008,10,18,16,05,12.30
2008,10,18,16,06,12.30
2008,10,18,16,07,12.40
2008,10,18,16,08,12.40
2008,10,18,16,09,12.40
2008,10,18,16,10,12.40
2008,10,18,16,11,12.40
2008,10,18,16,12,12.30
2008,10,18,16,13,12.30
2008,10,18,16,14,12.30
2008,10,18,16,15,12.30
2008,10,18,16,16,12.30
2008,10,18,16,17,12.30
2008,10,18,16,18,12.30
2008,10,18,16,19,12.30
2008,10,18,16,20,12.30
2008,10,18,16,21,12.30
2008,10,18,16,22,12.30
2008,10,18,16,23,12.30
2008,10,18,16,24,12.30
2008,10,18,16,25,12.30
2008,10,18,16,26,12.30
2008,10,18,16,27,12.40
2008,10,18,16,28,12.40
2008,10,18,16,29,12.40
2008,10,18,16,30,12.40
2008,10,18,16,31,12.30
2008,10,18,16,32,12.30
2008,10,18,16,33,12.30
2008,10,18,16,34,12.20
2008,10,18,16,35,12.20
2008,10,18,16,36,12.20
2008,10,18,16,37,12.20
2008,10,18,16,38,12.20
2008,10,18,16,39,12.20
2008,10,18,16,40,12.30
2008,10,18,16,41,12.30
2008,10,18,16,42,12.30
2008,10,18,16,43,12.30
2008,10,18,16,44,12.30
2008,10,18,16,45,12.30
2008,10,18,16,46,12.30
2008,10,18,16,47,12.30
2008,10,18,16,48,12.30
2008,10,18,16,49,12.20
2008,10,18,16,50,12.20
2008,10,18,16,51,12.20
2008,10,18,16,52,12.20
2008,10,18,16,53,12.20
2008,10,18,16,54,12.20
2008,10,18,16,55,12.20
2008,10,18,16,56,12.20
2008,10,18,16,57,12.10
2008,10,18,16,58,12.10
2008,10,18,16,59,12.10
2008,10,18,17,00,12.00
2008,10,18,17,01,12.00
2008,10,18,17,02,11.90
2008,10,18,17,03,11.90
2008,10,18,17,04,11.80
2008,10,18,17,05,11.80
2008,10,18,17,06,11.80
2008,10,18,17,07,11.80
2008,10,18,17,08,11.80
2008,10,18,17,09,11.80
2008,10,18,17,10,11.80
2008,10,18,17,11,11.80
2008,10,18,17,12,11.80
2008,10,18,17,13,11.80
2008,10,18,17,14,11.80
2008,10,18,17,15,11.80
2008,10,18,17,16,11.80
2008,10,18,17,17,11.80
2008,10,18,17,18,11.80
2008,10,18,17,19,11.80
2008,10,18,17,20,11.80
2008,10,18,17,21,11.80
2008,10,18,17,22,11.80
2008,10,18,17,23,11.70
2008,10,18,17,24,11.70
2008,10,18,17,25,11.60
2008,10,18,17,26,11.50
2008,10,18,17,27,11.40
2008,10,18,17,28,11.30
2008,10,18,17,29,11.30
2008,10,18,17,30,11.20
2008,10,18,17,31,11.20
2008,10,18,17,32,11.20
2008,10,18,17,33,11.20
2008,10,18,17,34,11.10
2008,10,18,17,35,11.10
2008,10,18,17,36,11.00
2008,10,18,17,37,10.90
2008,10,18,17,38,10.90
2008,10,18,17,39,10.80
2008,10,18,17,40,10.80
2008,10,18,17,41,10.70
2008,10,18,17,42,10.70
2008,10,18,17,43,10.70
2008,10,18,17,44,10.70
2008,10,18,17,45,10.60
2008,10,18,17,46,10.60